Location: Chervonnoye
(48.6000°N, 34.4000°E)
Time: 21:42:03
(UTC+00:00)

BEESAT 3 - Pass Details

Date: 08 December 2021
Orbit: 472 x 512 km, 64.9° (Epoch: 27 January)

Event Time Altitude Azimuth Distance (km) Brightness Sun altitude
Rises 15:26:02 0° 190° (S) 2,541 ? -15.5°
Reaches altitude 10° 15:28:19 10° 179° (S) 1,673 ? -15.9°
Maximum altitude 15:31:35 29° 118° (ESE) 927 ? -16.4°
Enters shadow 15:31:48 29° 112° (ESE) 932 ? -16.5°
